Cloud_Cover
42 58 98 36 5 5 5 20 27 99 100 8 75 52 100 100 14 5 5 0 0 0 0 0 0 0 0 1 0 5 39 58 5 2 4 6 13 5 5 5 5 2 0 0
71 69 5 2 5 3 8 89 100 100 100 42 6 27 100 100 100 58 100 46 5 2 0 1 0 0 0 0 0 0 2 5 20 27 5 5 2 5 5 4 4 5 5 5
72 100 100 83 34 1 5 4 57 5 94 100 99 96 100 100 100 100 100 100 100 86 99 35 1 2 0 0 0 0 0 0 1 4 0 0 0 2 5 5 5 0 5 5
100 99 100 100 100 22 21 39 23 20 13 96 64 94 100 100 100 100 100 97 100 85 100 100 100 85 0 0 0 0 0 3 0 0 0 0 0 0 0 0 4 5 5 5
100 98 100 100 98 5 5 19 56 100 85 100 100 69 100 100 100 100 100 100 100 32 26 35 54 91 67 4 5 1 0 0 5 5 3 2 0 0 0 0 0 1 5 5
97 88 85 97 69 67 56 29 21 25 99 100 99 25 100 100 100 100 99 100 100 100 100 84 98 82 24 1 0 4 5 1 0 0 6 99 100 76 2 0 0 0 0 0
20 48 52 49 21 75 85 36 8 22 79 98 96 75 100 100 100 100 89 29 91 100 100 100 100 100 100 100 62 5 5 0 5 2 0 10 57 100 99 31 2 0 2 4
39 5 97 5 38 94 89 100 84 98 8 12 7 75 100 100 100 100 100 100 100 98 100 100 87 54 100 100 100 100 93 88 63 5 0 5 55 85 100 84 84 44 97 72
96 90 57 54 72 8 98 100 100 100 100 79 9 5 78 100 100 100 100 74 66 99 45 5 24 13 4 5 7 99 100 100 100 100 37 5 5 12 5 5 6 8 9 65
100 100 60 90 99 5 99 100 100 96 100 100 46 81 76 100 100 83 100 100 100 33 5 7 4 42 97 32 6 5 47 100 100 100 100 100 100 100 65 72 8 28 46 100
100 100 100 52 96 100 100 100 100 100 100 100 100 100 100 84 99 100 100 100 100 100 100 100 94 1 5 17 5 16 16 23 100 96 32 100 100 100 100 100 100 100 100 100
100 100 100 100 100 100 100 100 100 100 100 100 100 98 100 100 100 100 100 100 88 6 99 87 87 76 14 83 89 99 53 30 100 100 100 100 100 100 100 100 100 100 100 100
100 100 100 100 100 100 100 100 100 100 100 100 100 100 100 100 100 100 100 100 100 100 100 100 100 100 100 100 84 100 100 90 100 100 100 100 100 100 100 100 100 100 100 100
100 100 100 100 100 100 100 100 100 100 100 100 100 100 100 100 100 100 100 100 100 100 100 100 100 100 100 100 100 63 68 61 66 89 85 99 100 100 100 100 100 100 100 100
100 100 100 99 100 100 100 100 100 100 100 100 100 100 100 100 100 100 100 100 100 100 100 100 100 100 100 100 100 100 100 100 100 100 100 100 100 100 100 96 100 100 100 100
96 91 100 69 47 100 100 65 92 66 99 100 100 92 51 38 96 100 100 100 100 100 100 100 100 80 99 83 17 91 100 100 100 100 100 100 100 100 100 100 100 100 100 100
97 100 100 82 3 40 79 0 0 0 0 4 86 100 96 59 90 98 87 100 100 98 100 64 56 100 100 100 100 98 100 41 16 74 100 100 100 100 100 100 100 100 100 100
100 97 100 100 98 96 0 2 2 61 92 59 98 100 98 80 70 81 7 38 16 66 88 57 100 72 100 100 100 83 98 98 17 18 5 5 84 100 100 100 100 100 100 100
8 33 90 74 54 0 0 1 0 0 50 18 92 86 100 100 19 14 29 11 5 5 5 25 100 76 100 100 100 100 83 5 14 14 40 100 100 97 99 100 34 81 100 100
0 8 95 99 100 68 4 0 0 0 51 5 9 5 64 75 45 2 3 2 3 30 66 7 5 65 48 5 5 27 45 100 65 35 76 100 100 100 97 42 5 5 5 94
6 6 78 70 100 53 0 0 0 2 1 0 5 5 5 15 4 1 0 0 0 0 0 0 0 0 5 9 53 90 31 70 98 100 93 100 100 100 100 80 83 29 34 8
0 1 3 47 75 3 0 0 1 1 0 1 0 0 5 1 0 0 0 0 0 0 0 0 0 0 0 5 6 5 99 92 100 100 95 100 100 100 97 98 100 98 83 70
5 0 5 36 2 5 5 5 5 5 5 0 0 0 0 0 0 0 0 0 0 0 0 0 0 0 0 0 0 0 0 94 74 97 27 92 74 95 100 100 100 100 100 93
4 16 78 14 0 5 5 5 5 5 4 0 0 0 0 5 2 0 0 0 0 0 0 0 0 0 0 0 0 0 0 3 5 5 6 88 100 100 100 100 99 100 100 100
3 5 5 3 0 4 2 0 2 4 4 4 0 0 5 5 4 3 1 0 0 0 0 0 0 0 0 0 0 0 0 4 5 5 16 5 100 100 100 100 89 92 100 100
8 3 12 5 2 6 3 0 5 5 5 1 0 0 3 5 5 17 5 4 0 0 0 0 0 3 0 3 4 5 5 5 5 5 5 70 99 100 100 100 98 86 100 100